Weather reports worldwide

Advertisment
Villanueva De Cordoba, Spain (8346): temperature & dewpoint: 13.03.2019 09:00:00 - 19.03.2019 09:00:00 (CET)Villanueva De Cordoba, Spain (8346): wind speed & gusts: 13.03.2019 09:00:00 - 19.03.2019 09:00:00 (CET)Villanueva De Cordoba, Spain (8346): wind direction: 13.03.2019 09:00:00 - 19.03.2019 09:00:00 (CET)Villanueva De Cordoba, Spain (8346): reduced air pressure: 13.03.2019 09:00:00 - 19.03.2019 09:00:00 (CET)Villanueva De Cordoba, Spain (8346): visibility: 13.03.2019 09:00:00 - 19.03.2019 09:00:00 (CET)Villanueva De Cordoba, Spain (8346): sunshine duration: 13.03.2019 09:00:00 - 19.03.2019 09:00:00 (CET)Villanueva De Cordoba, Spain (8346): precipitation: 13.03.2019 09:00:00 - 19.03.2019 09:00:00 (CET)
Date & Time tt [°C] td [°C] ff [km/h] ff [kn] fx [km/h] fx [kn] dd ppp [hPa] vv [km] sd [min] rr [mm]
19.03.2019 09:00:00 9,0 -3,3 13 7 29 16 NE 1024,4 20 52 0,0
19.03.2019 08:00:00 5,1 -5,4 9 5 15 8 ENE 1025,3 20 2 0,0
19.03.2019 07:00:00 4,2 -6,0 8 4 13 7 NE 1025,3 20 0 -
19.03.2019 06:00:00 4,8 -6,0 6 4 18 10 NE 1025,0 20 0 0,0
19.03.2019 05:00:00 4,9 -6,0 7 4 18 10 NE 1024,7 20 0 0,0
19.03.2019 04:00:00 6,2 -5,7 7 4 14 7 N 1024,6 20 0 0,0
19.03.2019 03:00:00 6,0 -6,7 4 2 8 4 NNE 1025,0 20 0 0,0
19.03.2019 02:00:00 7,3 -6,7 5 3 11 6 E 1024,8 20 0 0,0
19.03.2019 01:00:00 6,6 -6,0 8 4 19 10 ENE 1025,0 20 0 -
19.03.2019 00:00:00 6,8 -6,4 9 5 16 9 NE 1025,0 20 0 0,0
18.03.2019 23:00:00 7,8 -7,1 6 3 15 8 NE 1024,9 20 0 0,0
18.03.2019 22:00:00 8,9 -7,1 8 4 15 8 NNE 1024,3 20 0 0,0
18.03.2019 21:00:00 9,1 -3,9 7 4 13 7 NE 1023,5 20 0 0,0
18.03.2019 20:00:00 11,3 -3,0 7 4 14 8 NNE 1022,6 20 17 0,0
18.03.2019 19:00:00 14,5 -2,0 9 5 26 14 NNE 1021,2 20 60 -
18.03.2019 18:00:00 15,9 -0,7 10 5 27 15 NE 1020,0 20 60 0,0
18.03.2019 17:00:00 16,7 0,4 11 6 29 15 N 1019,6 20 60 0,0
18.03.2019 16:00:00 17,1 -0,3 9 5 24 13 NNE 1019,7 20 60 0,0
18.03.2019 15:00:00 16,7 1,1 13 7 30 16 NNE 1020,1 20 60 0,0
18.03.2019 14:00:00 17,0 1,9 9 5 22 12 ENE 1020,5 20 60 0,0
18.03.2019 13:00:00 16,3 2,7 9 5 22 12 ENE 1021,1 20 60 -
18.03.2019 12:00:00 15,7 1,7 11 6 29 16 E 1021,3 20 60 0,0
18.03.2019 11:00:00 14,5 2,1 16 8 35 19 ENE 1021,4 20 60 0,0
18.03.2019 10:00:00 12,6 3,0 13 7 28 15 ENE 1021,3 20 60 0,0
18.03.2019 09:00:00 9,4 3,4 10 5 21 11 NNE 1022,0 20 49 0,0
18.03.2019 08:00:00 5,7 1,9 6 4 13 7 NNE 1022,4 20 0 0,0
18.03.2019 07:00:00 6,1 2,7 7 4 16 9 N 1021,6 20 0 -
18.03.2019 06:00:00 6,3 3,4 7 4 18 10 NNW 1020,7 20 0 0,0
18.03.2019 05:00:00 6,7 3,4 9 5 19 10 NNW 1020,4 20 0 0,0
18.03.2019 04:00:00 7,1 3,4 10 5 17 9 NNW 1020,6 20 0 0,0
18.03.2019 03:00:00 7,6 3,4 10 6 18 10 NW 1020,5 20 0 0,0
18.03.2019 02:00:00 8,2 3,6 10 6 18 10 NNW 1020,5 20 0 0,0
18.03.2019 01:00:00 8,6 3,6 9 5 20 11 NNW 1020,4 20 0 -
18.03.2019 00:00:00 9,2 3,8 10 5 20 11 NNW 1020,4 20 0 0,0
17.03.2019 23:00:00 9,7 3,2 9 5 19 10 NNW 1020,4 20 0 0,0
17.03.2019 22:00:00 10,1 3,2 7 4 16 9 N 1020,0 20 0 0,0
17.03.2019 21:00:00 10,4 2,5 8 4 21 11 NNW 1019,9 20 0 0,0
17.03.2019 20:00:00 11,5 2,9 9 5 32 17 NW 1019,5 20 10 0,0
17.03.2019 19:00:00 14,4 3,2 14 7 32 18 NW 1018,1 20 60 -
17.03.2019 18:00:00 16,2 2,3 17 9 40 21 NW 1017,4 20 55 0,0
17.03.2019 17:00:00 19,0 -1,4 21 11 48 26 W 1016,4 20 60 0,0
17.03.2019 16:00:00 19,5 -3,6 18 10 40 21 W 1016,7 20 60 0,0
17.03.2019 15:00:00 19,4 -1,7 18 10 36 19 WNW 1017,3 17 60 0,0
17.03.2019 14:00:00 18,8 -2,2 20 11 34 19 W 1018,3 20 60 0,0
17.03.2019 13:00:00 18,2 -1,7 14 7 32 18 WNW 1019,1 19 60 -
17.03.2019 12:00:00 16,8 -2,2 10 6 20 11 NW 1020,0 20 60 0,0
17.03.2019 11:00:00 14,7 -2,7 10 5 23 12 WNW 1020,7 20 60 0,0
17.03.2019 10:00:00 13,4 0,0 15 8 27 15 WNW 1020,9 20 60 0,0
17.03.2019 09:00:00 13,4 1,5 8 5 13 7 W 1020,3 20 58 0,0
17.03.2019 08:00:00 9,6 0,6 7 4 11 6 WNW 1020,8 20 0 0,0
17.03.2019 07:00:00 9,3 1,9 7 4 12 7 WNW 1020,3 20 0 -
17.03.2019 06:00:00 8,8 2,1 10 5 13 7 NW 1020,3 20 0 0,0
17.03.2019 05:00:00 9,6 1,7 7 4 13 7 NW 1020,0 20 0 0,0
17.03.2019 04:00:00 10,7 1,5 8 4 17 9 WNW 1019,9 20 0 0,0
17.03.2019 03:00:00 11,4 0,9 9 5 18 10 W 1020,0 20 0 0,0
17.03.2019 02:00:00 11,8 0,2 12 7 23 12 W 1020,1 20 0 0,0
17.03.2019 01:00:00 12,4 -1,0 11 6 18 10 W 1020,3 20 0 -
17.03.2019 00:00:00 13,1 -1,0 11 6 20 11 WSW 1020,0 20 0 0,0
16.03.2019 23:00:00 13,2 -1,2 10 6 17 9 SW 1020,2 20 0 0,0
16.03.2019 22:00:00 12,9 -2,0 10 5 15 8 SW 1020,4 20 0 0,0
16.03.2019 21:00:00 13,9 -3,0 10 5 17 9 SW 1020,0 20 0 0,0
16.03.2019 20:00:00 16,0 -3,6 10 5 16 9 SSW 1019,1 19 18 0,0
16.03.2019 19:00:00 20,3 -4,2 9 5 24 13 SW 1017,6 20 60 -
16.03.2019 18:00:00 22,7 -5,4 11 6 20 11 SW 1016,8 20 60 0,0
16.03.2019 17:00:00 23,5 -6,4 11 6 29 16 SSW 1016,9 20 60 0,0
16.03.2019 16:00:00 23,6 -3,9 11 6 28 15 SSW 1017,1 20 60 0,0
16.03.2019 15:00:00 23,0 -3,3 15 8 29 16 SSW 1018,0 20 60 0,0
16.03.2019 14:00:00 23,1 -1,2 14 8 29 16 SSW 1018,7 20 60 0,0
16.03.2019 13:00:00 23,4 -1,4 11 6 24 13 SSW 1019,3 20 60 -
16.03.2019 12:00:00 23,2 -0,3 6 3 19 10 S 1019,7 20 60 0,0
16.03.2019 11:00:00 21,3 -1,2 8 5 16 9 S 1020,7 20 60 0,0
16.03.2019 10:00:00 19,5 -2,7 5 3 12 7 SSE 1021,4 20 60 0,0
16.03.2019 09:00:00 17,8 -3,6 5 3 10 5 SE 1021,7 20 56 0,0
16.03.2019 08:00:00 14,2 -5,1 7 4 12 6 SE 1022,7 20 0 0,0
16.03.2019 07:00:00 12,7 -5,4 6 3 12 7 SE 1023,2 20 0 -
16.03.2019 06:00:00 12,6 -5,1 7 4 12 7 SSE 1023,2 20 0 0,0
16.03.2019 05:00:00 12,9 -5,7 6 4 9 5 S 1023,3 20 0 0,0
16.03.2019 04:00:00 12,8 -4,5 8 4 11 6 SSE 1023,5 20 0 0,0
16.03.2019 03:00:00 12,9 -3,3 8 4 11 6 SSE 1024,2 20 0 0,0
16.03.2019 02:00:00 13,3 -3,9 7 4 10 5 S 1024,4 20 0 0,0
16.03.2019 01:00:00 14,3 -3,9 6 3 9 5 S 1024,5 20 0 -
16.03.2019 00:00:00 14,3 -3,6 7 4 9 5 S 1024,9 20 0 0,0
15.03.2019 23:00:00 14,5 -3,3 6 3 9 5 S 1024,9 20 0 0,0
15.03.2019 22:00:00 14,9 -3,9 5 3 8 4 SSW 1024,5 20 0 0,0
15.03.2019 21:00:00 15,4 -3,6 5 3 8 5 SW 1023,8 20 0 0,0
15.03.2019 20:00:00 16,9 -2,2 8 4 16 8 SSW 1023,3 20 19 0,0
15.03.2019 19:00:00 21,1 -1,0 4 2 15 8 NW 1021,6 20 60 -
15.03.2019 18:00:00 22,1 -3,3 9 5 17 9 NNW 1021,3 20 60 0,0
15.03.2019 17:00:00 23,4 -3,0 3 2 15 8 NW 1021,0 20 60 0,0
15.03.2019 16:00:00 23,3 -3,9 3 1 16 9 ENE 1021,4 20 60 0,0
15.03.2019 15:00:00 23,0 -7,8 4 2 14 8 N 1022,0 20 60 0,0
15.03.2019 14:00:00 21,6 -6,0 8 4 18 10 NE 1023,1 18 60 0,0
15.03.2019 13:00:00 21,0 -5,1 4 2 22 12 NE 1024,0 20 60 -
15.03.2019 12:00:00 20,2 -4,2 8 4 19 10 SE 1024,7 20 60 0,0
15.03.2019 11:00:00 18,6 -0,7 6 3 11 6 SSW 1025,3 20 60 0,0
15.03.2019 10:00:00 16,9 -1,7 3 2 14 8 ESE 1025,8 20 60 0,0
15.03.2019 09:00:00 13,0 -2,2 9 5 18 10 ENE 1026,7 20 55 0,0
15.03.2019 08:00:00 8,1 -2,7 8 5 15 8 E 1028,1 20 0 0,0
15.03.2019 07:00:00 7,1 -3,0 8 5 11 6 ENE 1028,1 20 0 -
15.03.2019 06:00:00 7,5 -2,7 8 5 12 7 NE 1028,0 20 0 0,0
15.03.2019 05:00:00 7,6 -2,7 9 5 15 8 NNE 1028,1 20 0 0,0
15.03.2019 04:00:00 8,4 -2,7 10 5 18 10 NNE 1028,0 20 0 0,0
15.03.2019 03:00:00 8,6 -3,9 6 4 18 10 NNE 1028,6 20 0 0,0
15.03.2019 02:00:00 9,6 -4,2 9 5 16 9 N 1028,7 20 0 0,0
15.03.2019 01:00:00 8,9 -4,8 7 4 13 7 NNE 1029,3 20 0 -
15.03.2019 00:00:00 9,4 -4,5 7 4 10 5 N 1029,4 20 0 0,0
14.03.2019 23:00:00 9,9 -4,5 6 3 10 5 N 1029,2 20 0 0,0
14.03.2019 22:00:00 10,0 -3,6 7 4 13 7 NNE 1028,8 20 0 0,0
14.03.2019 21:00:00 10,8 -3,0 7 4 12 6 NNE 1028,3 20 0 0,0
14.03.2019 20:00:00 12,7 -2,7 6 4 11 6 NNE 1027,6 20 20 0,0
14.03.2019 19:00:00 16,2 -2,0 5 3 15 8 N 1026,2 20 60 -
14.03.2019 18:00:00 17,6 -3,3 5 3 18 10 NNE 1025,7 20 60 0,0
14.03.2019 17:00:00 17,9 -2,0 8 4 23 13 NW 1025,7 20 60 0,0
14.03.2019 16:00:00 17,7 -5,1 6 3 23 12 NNW 1025,9 20 60 0,0
14.03.2019 15:00:00 17,6 -3,9 6 4 16 9 NNW 1026,1 20 60 0,0
14.03.2019 14:00:00 16,9 -5,7 6 3 16 9 E 1026,9 20 60 0,0
14.03.2019 13:00:00 16,3 -2,2 4 2 14 8 SSE 1027,9 20 60 -
14.03.2019 12:00:00 14,8 -3,0 8 4 16 9 E 1029,2 20 60 0,0
14.03.2019 11:00:00 13,1 -2,7 8 5 16 9 ENE 1029,7 20 60 0,0
14.03.2019 10:00:00 11,3 -2,2 4 2 12 6 ENE 1030,4 20 60 0,0
14.03.2019 09:00:00 8,6 -2,5 7 4 15 8 NE 1030,7 20 53 0,0
14.03.2019 08:00:00 4,6 -3,9 9 5 20 11 E 1031,2 20 0 0,0
14.03.2019 07:00:00 4,8 -3,9 10 5 18 10 E 1030,9 20 0 -
14.03.2019 06:00:00 4,9 -3,9 8 5 16 9 E 1030,8 20 0 0,0
14.03.2019 05:00:00 4,9 -3,6 8 4 18 10 E 1030,6 20 0 0,0
14.03.2019 04:00:00 5,4 -3,3 10 6 18 10 E 1030,8 20 0 0,0
14.03.2019 03:00:00 5,3 -3,0 8 5 17 9 E 1031,1 20 0 0,0
14.03.2019 02:00:00 6,1 -2,7 9 5 14 8 E 1031,0 20 0 0,0
14.03.2019 01:00:00 6,6 -2,7 9 5 20 11 ENE 1030,8 20 0 -
14.03.2019 00:00:00 7,2 -3,6 11 6 19 10 ENE 1030,3 20 0 0,0
13.03.2019 23:00:00 7,6 -4,2 9 5 16 9 ENE 1029,9 20 0 0,0
13.03.2019 22:00:00 8,8 -4,8 10 6 18 10 ENE 1029,2 20 0 0,0
13.03.2019 21:00:00 9,7 -3,3 9 5 19 10 NE 1028,7 20 0 0,0
13.03.2019 20:00:00 11,0 -1,7 7 4 17 9 NNE 1027,6 20 14 0,0
13.03.2019 19:00:00 14,0 -1,7 8 5 25 13 NNE 1026,0 20 60 -
13.03.2019 18:00:00 15,6 3,0 10 6 30 16 NE 1024,9 20 56 0,0
13.03.2019 17:00:00 15,6 3,4 11 6 26 14 NNE 1024,8 20 55 0,0
13.03.2019 16:00:00 16,4 3,8 10 5 29 16 NNE 1024,1 20 60 0,0
13.03.2019 15:00:00 - - - - - - - - - - -
13.03.2019 14:00:00 14,3 6,4 8 5 24 13 N 1025,5 20 51 0,0
13.03.2019 13:00:00 13,1 6,2 13 7 29 16 NNW 1026,4 20 60 -
13.03.2019 12:00:00 11,9 5,8 11 6 22 12 NW 1026,5 20 60 0,0
13.03.2019 11:00:00 10,5 6,2 11 6 22 12 NW 1027,0 20 60 0,0
13.03.2019 10:00:00 8,5 6,1 12 7 23 13 NNW 1027,2 20 50 0,0
13.03.2019 09:00:00 6,8 5,8 9 5 21 12 NNW 1027,1 20 50 0,0

tt = temperature
td = dewpoint
ff = wind speed
fx = gusts
dd = wind direction
ppp = reduced air pressure
vv = visibility
sd = sunshine duration
rr = precipitation

Next stations